Bookmark and Share
Track history (hours):
 

Luhe

Last reported at 2014-Apr-20 00:31 UTC. Time now 2014-Apr-20 00:42 UTC.
Position N 40°50' E 014°17'.

Length 280 m; draft 10.9 m.

Type: Cargo ship. MMSI: 354812000.

NotesDate/timePositionNaut miles runAvg speedWind from/ knotsBaromVisibWave heightAir tempDewpointWater temp
2014-Apr-20 00:31N 40°50' E 014°17'0 0.0
2014-Apr-19 23:22N 40°50' E 014°17'0 0.0
2014-Apr-19 21:07N 40°50' E 014°17'0 0.0
2014-Apr-19 17:28N 40°50' E 014°17'0 0.0
2014-Apr-19 16:28N 40°50' E 014°17'0 0.0
2014-Apr-19 14:07N 40°50' E 014°17'0 0.0
2014-Apr-19 12:22N 40°50' E 014°17'0 0.0
2014-Apr-19 11:22N 40°50' E 014°17'0 0.0
2014-Apr-19 09:22N 40°50' E 014°17'0 0.0
2014-Apr-19 08:25N 40°50' E 014°17'0 0.0
2014-Apr-19 07:28N 40°50' E 014°17'0 0.0
2014-Apr-19 05:19N 40°50' E 014°17'0 0.0
2014-Apr-19 04:25N 40°50' E 014°17'0 0.0
2014-Apr-19 01:25N 40°50' E 014°17'0 0.0
2014-Apr-19 00:25N 40°50' E 014°17'0 0.0
2014-Apr-18 22:31N 40°50' E 014°17'0 0.0
2014-Apr-18 20:04N 40°50' E 014°17'0 0.0
2014-Apr-18 19:31N 40°50' E 014°17'0 0.0
2014-Apr-18 18:10N 40°50' E 014°17'0 0.6
2014-Apr-18 17:33N 40°50' E 014°17'1 1.1
2014-Apr-18 16:33N 40°49' E 014°16'0 0.1
2014-Apr-18 15:17N 40°49' E 014°16'0 0.1
2014-Apr-18 14:23N 40°49' E 014°16'0 0.1
2014-Apr-18 13:26N 40°49' E 014°16'0 0.0
2014-Apr-18 12:32N 40°49' E 014°16'0 0.0
2014-Apr-18 11:32N 40°49' E 014°16'0 0.1
2014-Apr-18 10:33N 40°49' E 014°16'2 2.2
2014-Apr-18 09:33N 40°47' E 014°16'9 8.9
2014-Apr-18 08:33N 40°39' E 014°12'9 9.1
2014-Apr-18 07:33N 40°30' E 014°09'1010.4
2014-Apr-18 06:33N 40°21' E 014°16'121 8.4
2014-Apr-17 16:06N 38°35' E 015°32'13 7.3
2014-Apr-17 14:17N 38°23' E 015°39'9 7.8
2014-Apr-17 13:08N 38°14' E 015°38'1012.4
2014-Apr-17 12:19N 38°04' E 015°36'7 9.2
2014-Apr-17 11:32N 37°57' E 015°37'  
2014-Apr-14 09:33N 31°21' E 032°22'  

Dump ship's entire track history

sailing weather and tide predictions

Luhe — 3FVZ6 — position and weather